DAL6299 KDTW-KDCA

Flight info

Callsign DAL6299
Flight time 0h 57m
Altitude 35000
Route LIDDS4 GRIVY BUCKO FRDMM6
Aircraft B738/M-SDE2E3FGHIRWXY/LB1

Departure

Time 2026-05-04 00:34
Airport Detroit Metropolitan Wayne County Airport (KDTW)

Arrival

Time 2026-05-04 01:31
Airport Ronald Reagan Washington National Airport (KDCA)
Time Latitude Longitude Altitude Speed Heading
2026-05-04 00:07 42.21095 -83.35666 643 ft 0 kts 118°
2026-05-04 00:22 42.21096 -83.35666 642 ft 0 kts 118°
2026-05-04 00:23 42.21095 -83.35666 642 ft 0 kts 118°
2026-05-04 00:23 42.21096 -83.35666 642 ft 0 kts 118°
2026-05-04 00:23 42.21103 -83.35681 643 ft 2 kts 123°
2026-05-04 00:23 42.21110 -83.35699 642 ft 2 kts 117°
2026-05-04 00:24 42.21117 -83.35716 642 ft 2 kts 119°
2026-05-04 00:24 42.21124 -83.35735 642 ft 2 kts 118°
2026-05-04 00:24 42.21128 -83.35745 642 ft 1 kts 119°
2026-05-04 00:24 42.21132 -83.35764 642 ft 2 kts 80°
2026-05-04 00:25 42.21126 -83.35783 642 ft 2 kts 44°
2026-05-04 00:25 42.21120 -83.35789 642 ft 0 kts 24°
2026-05-04 00:25 42.21115 -83.35792 642 ft 0 kts 28°
2026-05-04 00:27 42.21117 -83.35790 642 ft 2 kts 30°
2026-05-04 00:27 42.21165 -83.35754 642 ft 11 kts 29°
2026-05-04 00:27 42.21246 -83.35695 642 ft 14 kts 29°
2026-05-04 00:27 42.21337 -83.35627 642 ft 15 kts 29°
2026-05-04 00:28 42.21434 -83.35554 642 ft 16 kts 29°
2026-05-04 00:28 42.21526 -83.35478 642 ft 14 kts 45°
2026-05-04 00:28 42.21550 -83.35342 639 ft 16 kts 88°
2026-05-04 00:28 42.21552 -83.35196 639 ft 14 kts 89°
2026-05-04 00:29 42.21576 -83.35067 639 ft 15 kts 53°
2026-05-04 00:29 42.21653 -83.34963 639 ft 16 kts 44°
2026-05-04 00:29 42.21735 -83.34855 639 ft 16 kts 44°
2026-05-04 00:29 42.21814 -83.34753 639 ft 14 kts 47°
2026-05-04 00:30 42.21838 -83.34629 639 ft 14 kts 89°
2026-05-04 00:30 42.21865 -83.34508 639 ft 14 kts 46°
2026-05-04 00:30 42.21950 -83.34430 639 ft 15 kts 28°
2026-05-04 00:30 42.22052 -83.34357 639 ft 17 kts 28°
2026-05-04 00:31 42.22165 -83.34274 639 ft 18 kts 28°
2026-05-04 00:31 42.22272 -83.34193 639 ft 16 kts 29°
2026-05-04 00:31 42.22373 -83.34118 638 ft 16 kts 28°
2026-05-04 00:31 42.22478 -83.34041 637 ft 17 kts 28°
2026-05-04 00:32 42.22579 -83.33966 636 ft 15 kts 29°
2026-05-04 00:32 42.22670 -83.33900 636 ft 15 kts 28°
2026-05-04 00:32 42.22767 -83.33828 636 ft 17 kts 28°
2026-05-04 00:32 42.22852 -83.33753 636 ft 10 kts 66°
2026-05-04 00:33 42.22825 -83.33654 636 ft 12 kts 140°
2026-05-04 00:33 42.22397 -83.33933 636 ft 98 kts 209°
2026-05-04 00:33 42.21586 -83.34535 676 ft 162 kts 214°
2026-05-04 00:34 42.20604 -83.35287 1503 ft 164 kts 214°
2026-05-04 00:34 42.19595 -83.35995 2113 ft 175 kts 214°
2026-05-04 00:34 42.18321 -83.36449 2511 ft 207 kts 184°
2026-05-04 00:34 42.16828 -83.36253 3204 ft 224 kts 181°
2026-05-04 00:35 42.15231 -83.36124 3878 ft 241 kts 184°
2026-05-04 00:35 42.13546 -83.36024 4760 ft 250 kts 185°
2026-05-04 00:35 42.11823 -83.35912 5673 ft 257 kts 186°
2026-05-04 00:35 42.10032 -83.35802 6598 ft 263 kts 186°
2026-05-04 00:36 42.08199 -83.35465 7462 ft 279 kts 173°
2026-05-04 00:36 42.06437 -83.34137 8340 ft 304 kts 142°
2026-05-04 00:36 42.05294 -83.31704 9182 ft 324 kts 111°
2026-05-04 00:36 42.05074 -83.28719 10229 ft 323 kts 86°
2026-05-04 00:37 42.05207 -83.25680 10988 ft 332 kts 88°
2026-05-04 00:37 42.05222 -83.22498 11454 ft 349 kts 91°
2026-05-04 00:37 42.05155 -83.19267 12409 ft 349 kts 91°
2026-05-04 00:37 42.05084 -83.16000 13094 ft 357 kts 91°
2026-05-04 00:38 42.05009 -83.12650 13947 ft 359 kts 91°
2026-05-04 00:38 42.04926 -83.09309 14700 ft 363 kts 91°
2026-05-04 00:38 42.04834 -83.05904 15449 ft 366 kts 90°
2026-05-04 00:38 42.04739 -83.02482 16159 ft 370 kts 90°
2026-05-04 00:39 42.04641 -82.99026 16841 ft 375 kts 90°
2026-05-04 00:39 42.04541 -82.95504 17541 ft 378 kts 90°
2026-05-04 00:39 42.04440 -82.91951 18182 ft 382 kts 90°
2026-05-04 00:39 42.04337 -82.88386 18807 ft 386 kts 90°
2026-05-04 00:40 42.04229 -82.84742 19421 ft 390 kts 90°
2026-05-04 00:40 42.04120 -82.81109 20009 ft 395 kts 90°
2026-05-04 00:40 42.04008 -82.77421 20577 ft 399 kts 90°
2026-05-04 00:40 42.03894 -82.73647 21144 ft 403 kts 90°
2026-05-04 00:41 42.03778 -82.69931 21686 ft 407 kts 90°
2026-05-04 00:41 42.03656 -82.66085 22194 ft 411 kts 90°
2026-05-04 00:41 42.03534 -82.62238 22695 ft 415 kts 90°
2026-05-04 00:41 42.03411 -82.58343 23194 ft 419 kts 90°
2026-05-04 00:42 42.03268 -82.54417 23682 ft 423 kts 91°
2026-05-04 00:42 42.02902 -82.50457 24118 ft 430 kts 99°
2026-05-04 00:42 42.02242 -82.46526 24611 ft 433 kts 102°
2026-05-04 00:42 42.01527 -82.42615 25100 ft 435 kts 102°
2026-05-04 00:43 42.00825 -82.38673 25569 ft 438 kts 101°
2026-05-04 00:43 42.00126 -82.34711 26018 ft 440 kts 102°
2026-05-04 00:43 41.99406 -82.30701 26412 ft 444 kts 102°
2026-05-04 00:43 41.98664 -82.26620 26838 ft 446 kts 102°
2026-05-04 00:44 41.97931 -82.22629 27268 ft 448 kts 102°
2026-05-04 00:44 41.97189 -82.18515 27594 ft 452 kts 102°
2026-05-04 00:44 41.96342 -82.14463 27975 ft 455 kts 109°
2026-05-04 00:44 41.95060 -82.10583 28344 ft 458 kts 120°
2026-05-04 00:45 41.93195 -82.07165 28763 ft 456 kts 135°
2026-05-04 00:45 41.90928 -82.04205 29130 ft 457 kts 140°
2026-05-04 00:45 41.88494 -82.01407 29336 ft 462 kts 142°
2026-05-04 00:45 41.86002 -81.98676 29757 ft 461 kts 143°
2026-05-04 00:46 41.83519 -81.95975 30050 ft 464 kts 143°
2026-05-04 00:46 41.80999 -81.93254 30348 ft 467 kts 143°
2026-05-04 00:46 41.78458 -81.90545 30618 ft 469 kts 144°
2026-05-04 00:46 41.75895 -81.87870 30850 ft 473 kts 144°
2026-05-04 00:47 41.73316 -81.85195 31186 ft 474 kts 144°
2026-05-04 00:47 41.70728 -81.82486 31421 ft 477 kts 144°
2026-05-04 00:47 41.68081 -81.79755 31754 ft 478 kts 145°
2026-05-04 00:47 41.65439 -81.77087 31914 ft 482 kts 146°
2026-05-04 00:48 41.62761 -81.74433 32261 ft 482 kts 146°
2026-05-04 00:48 41.60017 -81.71775 32415 ft 486 kts 146°
2026-05-04 00:48 41.57299 -81.69166 32697 ft 487 kts 147°
2026-05-04 00:48 41.54541 -81.66547 32887 ft 490 kts 147°
2026-05-04 00:49 41.51747 -81.63895 33161 ft 491 kts 147°
2026-05-04 00:49 41.48982 -81.61251 33314 ft 496 kts 146°
2026-05-04 00:49 41.46185 -81.58545 33521 ft 498 kts 146°
2026-05-04 00:49 41.43406 -81.55848 33734 ft 500 kts 146°
2026-05-04 00:50 41.40575 -81.53150 33947 ft 501 kts 147°
2026-05-04 00:50 41.37816 -81.50577 34150 ft 503 kts 147°
2026-05-04 00:50 41.34955 -81.47836 34326 ft 506 kts 146°
2026-05-04 00:50 41.32158 -81.45070 34550 ft 508 kts 145°
2026-05-04 00:51 41.29341 -81.42252 34843 ft 506 kts 146°
2026-05-04 00:51 41.26497 -81.39462 34969 ft 508 kts 146°
2026-05-04 00:51 41.23685 -81.36723 34969 ft 508 kts 146°
2026-05-04 00:52 41.18007 -81.31205 34985 ft 504 kts 147°
2026-05-04 00:52 41.12320 -81.25803 34977 ft 504 kts 148°
2026-05-04 00:53 41.06612 -81.20531 34988 ft 505 kts 149°
2026-05-04 00:53 41.00693 -81.15611 34983 ft 504 kts 153°
2026-05-04 00:54 40.94655 -81.10850 34992 ft 504 kts 153°
2026-05-04 00:54 40.88683 -81.06165 34988 ft 504 kts 153°
2026-05-04 00:55 40.82631 -81.01437 34992 ft 505 kts 153°
2026-05-04 00:55 40.76636 -80.96719 34994 ft 505 kts 153°
2026-05-04 00:56 40.70605 -80.91948 35000 ft 506 kts 153°
2026-05-04 00:56 40.64600 -80.87196 35000 ft 506 kts 153°
2026-05-04 00:57 40.58585 -80.82438 35000 ft 506 kts 153°
2026-05-04 00:57 40.52552 -80.77677 35000 ft 508 kts 153°
2026-05-04 00:58 40.46526 -80.72926 35000 ft 508 kts 153°
2026-05-04 00:58 40.40498 -80.68181 35000 ft 507 kts 153°
2026-05-04 00:59 40.34447 -80.63432 35001 ft 508 kts 153°
2026-05-04 00:59 40.28418 -80.58709 35006 ft 509 kts 154°
2026-05-04 01:00 40.22365 -80.53976 35011 ft 509 kts 154°
2026-05-04 01:00 40.16266 -80.49217 35016 ft 510 kts 154°
2026-05-04 01:01 40.10231 -80.44518 35029 ft 510 kts 154°
2026-05-04 01:01 40.04133 -80.39780 35036 ft 511 kts 154°
2026-05-04 01:02 39.98054 -80.35064 35038 ft 511 kts 154°
2026-05-04 01:02 39.91966 -80.30343 35038 ft 510 kts 155°
2026-05-04 01:03 39.85886 -80.25657 35040 ft 510 kts 155°
2026-05-04 01:03 39.79803 -80.20973 35044 ft 510 kts 155°
2026-05-04 01:04 39.73743 -80.16316 35043 ft 510 kts 155°
2026-05-04 01:04 39.67681 -80.11665 35043 ft 510 kts 155°
2026-05-04 01:05 39.61590 -80.06999 35043 ft 509 kts 155°
2026-05-04 01:05 39.55494 -80.02341 35044 ft 509 kts 155°
2026-05-04 01:06 39.49519 -79.97786 35044 ft 510 kts 155°
2026-05-04 01:06 39.43393 -79.93124 35043 ft 510 kts 155°
2026-05-04 01:06 39.40371 -79.90827 34898 ft 507 kts 155°
2026-05-04 01:07 39.37351 -79.88531 34075 ft 507 kts 155°
2026-05-04 01:07 39.34397 -79.86067 33211 ft 514 kts 147°
2026-05-04 01:07 39.31800 -79.82869 32294 ft 523 kts 131°
2026-05-04 01:07 39.29936 -79.78850 31360 ft 528 kts 111°
2026-05-04 01:08 39.28979 -79.74351 31060 ft 515 kts 98°
2026-05-04 01:08 39.28120 -79.65211 31037 ft 523 kts 93°
2026-05-04 01:09 39.27332 -79.55784 31036 ft 533 kts 94°
2026-05-04 01:09 39.26522 -79.46306 31034 ft 534 kts 94°
2026-05-04 01:10 39.25737 -79.36820 30278 ft 531 kts 93°
2026-05-04 01:10 39.25346 -79.32117 29274 ft 532 kts 94°
2026-05-04 01:10 39.24955 -79.27415 28292 ft 531 kts 94°
2026-05-04 01:10 39.24565 -79.22759 28052 ft 512 kts 94°
2026-05-04 01:11 39.24187 -79.18325 28027 ft 491 kts 94°
2026-05-04 01:11 39.23815 -79.13986 28037 ft 478 kts 94°
2026-05-04 01:11 39.23455 -79.09757 27864 ft 486 kts 94°
2026-05-04 01:11 39.23084 -79.05411 27377 ft 483 kts 94°
2026-05-04 01:12 39.22712 -79.01112 26754 ft 478 kts 94°
2026-05-04 01:12 39.22347 -78.96916 26165 ft 473 kts 94°
2026-05-04 01:12 39.21974 -78.92790 25831 ft 462 kts 94°
2026-05-04 01:12 39.21574 -78.88663 25247 ft 458 kts 95°
2026-05-04 01:13 39.21173 -78.84637 24641 ft 455 kts 95°
2026-05-04 01:13 39.20783 -78.80644 24031 ft 451 kts 94°
2026-05-04 01:13 39.20401 -78.76643 23413 ft 448 kts 94°
2026-05-04 01:13 39.20021 -78.72714 22800 ft 444 kts 94°
2026-05-04 01:14 39.19630 -78.68753 22181 ft 441 kts 94°
2026-05-04 01:14 39.19246 -78.64870 21567 ft 437 kts 95°
2026-05-04 01:14 39.18865 -78.61031 20961 ft 433 kts 95°
2026-05-04 01:14 39.18483 -78.57175 20347 ft 429 kts 95°
2026-05-04 01:15 39.18111 -78.53406 19742 ft 425 kts 95°
2026-05-04 01:15 39.17739 -78.49662 19140 ft 421 kts 95°
2026-05-04 01:15 39.17367 -78.45951 18542 ft 416 kts 95°
2026-05-04 01:15 39.17001 -78.42315 17953 ft 412 kts 95°
2026-05-04 01:16 39.16598 -78.38659 17409 ft 407 kts 98°
2026-05-04 01:16 39.15955 -78.35171 17020 ft 397 kts 105°
2026-05-04 01:16 39.15152 -78.31831 16989 ft 385 kts 107°
2026-05-04 01:16 39.14354 -78.28518 16985 ft 390 kts 107°
2026-05-04 01:17 39.13555 -78.25186 16982 ft 392 kts 107°
2026-05-04 01:17 39.12743 -78.21857 16981 ft 392 kts 107°
2026-05-04 01:17 39.11910 -78.18481 16980 ft 392 kts 107°
2026-05-04 01:17 39.11099 -78.15209 16981 ft 392 kts 107°
2026-05-04 01:18 39.10279 -78.11912 16728 ft 384 kts 107°
2026-05-04 01:18 39.09459 -78.08649 16220 ft 380 kts 107°
2026-05-04 01:18 39.08650 -78.05481 15686 ft 377 kts 107°
2026-05-04 01:18 39.07828 -78.02268 15133 ft 375 kts 107°
2026-05-04 01:19 39.07017 -77.99101 14583 ft 372 kts 107°
2026-05-04 01:19 39.06209 -77.95942 14032 ft 369 kts 107°
2026-05-04 01:19 39.05419 -77.92864 13493 ft 367 kts 107°
2026-05-04 01:19 39.04625 -77.89765 13133 ft 358 kts 107°
2026-05-04 01:20 39.03857 -77.86781 12914 ft 346 kts 107°
2026-05-04 01:20 39.03108 -77.83866 12539 ft 340 kts 107°
2026-05-04 01:20 39.02372 -77.81007 12111 ft 337 kts 107°
2026-05-04 01:20 39.01647 -77.78195 11694 ft 333 kts 107°
2026-05-04 01:21 39.00919 -77.75371 11275 ft 330 kts 107°
2026-05-04 01:21 39.00198 -77.72575 10860 ft 327 kts 107°
2026-05-04 01:21 38.99486 -77.69828 10447 ft 323 kts 108°
2026-05-04 01:21 38.98780 -77.67105 10057 ft 319 kts 108°
2026-05-04 01:22 38.98091 -77.64510 9916 ft 302 kts 110°
2026-05-04 01:22 38.97342 -77.61985 9496 ft 301 kts 111°
2026-05-04 01:22 38.96599 -77.59506 9129 ft 299 kts 111°
2026-05-04 01:22 38.95862 -77.57000 8760 ft 297 kts 111°
2026-05-04 01:23 38.95138 -77.54549 8402 ft 295 kts 111°
2026-05-04 01:23 38.94637 -77.52025 8038 ft 292 kts 91°
2026-05-04 01:23 38.95010 -77.49541 7836 ft 277 kts 62°
2026-05-04 01:23 38.95842 -77.47344 7597 ft 272 kts 63°
2026-05-04 01:24 38.96549 -77.45109 7279 ft 270 kts 65°
2026-05-04 01:24 38.97250 -77.42922 7024 ft 261 kts 64°
2026-05-04 01:24 38.97957 -77.40783 6631 ft 258 kts 63°
2026-05-04 01:24 38.98650 -77.38689 6262 ft 254 kts 63°
2026-05-04 01:25 38.99335 -77.36622 5885 ft 248 kts 63°
2026-05-04 01:25 38.99999 -77.34627 5613 ft 239 kts 64°
2026-05-04 01:25 39.00648 -77.32682 5365 ft 237 kts 64°
2026-05-04 01:25 39.01302 -77.30740 5116 ft 237 kts 64°
2026-05-04 01:26 39.01947 -77.28812 5009 ft 233 kts 64°
2026-05-04 01:26 39.02600 -77.26860 4897 ft 238 kts 66°
2026-05-04 01:26 39.02894 -77.24844 4646 ft 229 kts 93°
2026-05-04 01:26 39.02435 -77.22922 4336 ft 221 kts 121°
2026-05-04 01:27 39.01477 -77.21452 4047 ft 209 kts 139°
2026-05-04 01:27 39.00423 -77.20189 3748 ft 207 kts 138°
2026-05-04 01:27 38.99406 -77.18950 3512 ft 198 kts 138°
2026-05-04 01:27 38.98399 -77.17731 3315 ft 198 kts 138°
2026-05-04 01:28 38.97420 -77.16492 3162 ft 198 kts 136°
2026-05-04 01:28 38.96437 -77.15265 3035 ft 197 kts 139°
2026-05-04 01:28 38.95418 -77.14121 2921 ft 195 kts 140°
2026-05-04 01:28 38.94378 -77.12961 2708 ft 193 kts 140°
2026-05-04 01:29 38.93425 -77.11906 2393 ft 174 kts 143°
2026-05-04 01:29 38.92458 -77.11081 2000 ft 159 kts 150°
2026-05-04 01:29 38.91580 -77.10243 1628 ft 157 kts 136°
2026-05-04 01:29 38.90963 -77.09106 1434 ft 157 kts 118°
2026-05-04 01:30 38.90449 -77.07878 1254 ft 149 kts 123°
2026-05-04 01:30 38.89836 -77.06825 1033 ft 150 kts 132°
2026-05-04 01:30 38.89141 -77.05830 831 ft 150 kts 134°
2026-05-04 01:30 38.88421 -77.04910 635 ft 147 kts 141°
2026-05-04 01:31 38.87573 -77.04206 391 ft 143 kts 159°
2026-05-04 01:31 38.86624 -77.03913 143 ft 143 kts 178°
2026-05-04 01:31 38.85643 -77.03824 23 ft 132 kts 176°
2026-05-04 01:31 38.84964 -77.03758 19 ft 48 kts 174°
2026-05-04 01:32 38.84779 -77.03742 18 ft 13 kts 190°
2026-05-04 01:32 38.84723 -77.03812 19 ft 10 kts 258°
2026-05-04 01:32 38.84733 -77.03882 20 ft 6 kts 294°
2026-05-04 01:32 38.84755 -77.03919 21 ft 6 kts 324°
2026-05-04 01:33 38.84833 -77.03944 21 ft 13 kts 355°
2026-05-04 01:33 38.84919 -77.03951 21 ft 11 kts 355°
2026-05-04 01:33 38.84994 -77.03960 22 ft 10 kts 355°
2026-05-04 01:33 38.85061 -77.03966 22 ft 8 kts 356°
2026-05-04 01:34 38.85121 -77.03972 22 ft 9 kts 354°
2026-05-04 01:34 38.85186 -77.03979 22 ft 9 kts 355°
2026-05-04 01:34 38.85253 -77.03986 22 ft 10 kts 354°
2026-05-04 01:34 38.85318 -77.04011 23 ft 8 kts 310°
2026-05-04 01:35 38.85323 -77.04072 24 ft 6 kts 256°
2026-05-04 01:35 38.85311 -77.04125 25 ft 5 kts 253°
2026-05-04 01:35 38.85301 -77.04162 26 ft 3 kts 232°
2026-05-04 01:35 38.85272 -77.04167 26 ft 5 kts 167°
2026-05-04 01:36 38.85251 -77.04159 26 ft 1 kts 163°
2026-05-04 01:36 38.85247 -77.04157 26 ft 0 kts 163°